EHI
32 30 30 22 10 4 1 0 0 0 0 0 0 0 0 0 0 0 0 0 0 0 0 0 0 0 0 0 0 0 0 0 0 0 0 0 0 0 0 0 0 0 0
40 38 35 26 13 5 3 2 1 0 0 0 0 0 0 0 0 0 0 0 0 0 0 0 0 0 0 0 0 0 0 0 0 0 0 0 0 0 0 0 0 0 0
48 43 39 32 17 8 6 5 3 1 0 0 0 0 0 0 0 0 0 0 0 0 0 0 0 0 0 0 0 0 0 0 0 0 0 0 0 0 0 0 0 0 0
47 43 40 36 24 12 8 6 4 2 0 0 0 0 0 0 0 0 0 0 0 0 0 0 0 0 0 0 0 0 0 0 0 0 0 0 0 0 0 0 0 0 0
43 44 45 40 29 16 9 7 5 2 0 0 0 0 0 0 0 0 0 0 0 0 0 0 0 0 0 0 0 0 0 1 0 0 0 0 0 0 0 0 0 0 0
42 44 45 41 31 20 11 8 6 3 1 0 0 0 0 0 0 0 0 0 0 0 0 0 0 0 0 0 0 0 0 1 1 0 0 0 0 0 0 0 0 0 0
48 45 42 39 32 21 12 9 7 4 2 0 0 0 0 0 0 0 0 0 0 0 0 0 0 0 0 0 0 0 1 2 2 0 0 0 0 0 0 0 0 0 0
59 50 41 36 29 20 13 9 7 6 3 1 0 0 0 0 0 0 0 0 0 0 0 0 0 0 0 0 0 0 2 4 2 0 0 0 0 0 0 0 0 0 0
66 54 40 33 26 17 11 8 7 6 5 3 1 0 0 0 0 0 0 0 0 0 0 0 0 0 0 0 0 0 2 4 3 1 0 0 0 0 0 0 0 0 0
67 52 36 29 24 15 8 7 6 6 6 3 1 0 0 0 0 0 0 0 0 0 0 0 0 0 0 0 0 0 1 3 3 1 0 0 0 0 0 0 0 0 0
64 48 31 28 24 14 7 6 6 6 5 3 1 0 0 0 0 0 1 1 0 0 0 0 0 0 0 0 0 0 0 1 1 0 0 0 0 0 0 0 0 0 0
66 48 34 31 25 14 10 9 6 5 5 3 2 1 0 0 1 2 3 2 1 0 0 0 0 0 0 0 0 0 0 0 0 0 0 0 1 0 0 0 0 0 0
66 55 45 42 34 24 20 14 8 6 7 6 5 4 1 1 2 4 5 3 1 0 0 0 0 0 0 0 0 0 0 1 0 0 0 0 0 0 0 0 0 0 0
68 62 60 60 54 48 38 21 11 10 11 11 11 7 2 2 4 7 6 3 1 1 1 1 2 1 1 1 0 0 1 2 2 1 0 0 0 0 0 0 0 0 0
74 69 70 73 73 71 58 35 21 19 19 20 18 12 7 6 8 12 11 6 4 4 3 4 5 4 4 2 1 0 1 3 3 2 1 0 0 1 1 0 0 0 0
80 77 76 78 80 79 67 48 35 30 26 27 28 23 16 14 17 18 13 10 9 10 10 9 7 5 4 2 1 2 3 4 4 3 1 0 0 1 2 1 0 0 0
83 82 79 76 77 76 67 53 41 35 31 31 36 33 24 24 28 23 14 10 11 16 18 13 8 3 1 0 1 3 5 4 3 3 1 0 0 1 2 1 0 0 0
81 81 77 72 72 72 66 55 45 42 41 41 41 37 30 31 34 26 16 12 13 17 17 13 7 3 1 1 2 3 3 3 2 2 1 1 2 2 2 1 0 0 0
75 74 72 69 69 70 67 60 54 53 53 49 46 42 38 37 35 27 21 19 16 15 13 9 7 5 2 2 2 2 2 2 2 1 1 2 3 3 1 1 1 0 0
68 69 69 69 69 68 64 60 56 54 51 48 47 48 44 39 33 25 23 23 19 14 11 10 10 7 3 2 1 1 1 2 2 2 1 1 2 2 1 1 1 1 0
64 66 67 67 65 63 60 56 53 46 41 40 43 47 44 38 31 24 22 24 21 16 13 13 11 6 2 1 0 0 0 1 3 2 1 0 0 1 2 3 3 3 2
61 63 64 62 60 56 55 55 51 43 37 36 39 42 39 35 29 23 24 25 23 20 16 12 9 4 1 0 0 0 0 1 2 2 1 0 0 0 2 4 4 5 5
59 59 59 59 57 53 52 51 47 42 38 36 37 36 33 30 27 25 25 25 22 20 15 11 7 4 2 0 0 0 0 0 0 0 0 0 0 0 1 2 3 5 6
56 56 56 57 55 52 50 45 40 38 37 37 38 35 30 27 27 27 26 26 23 19 14 10 8 7 4 2 1 1 1 1 0 0 0 0 1 0 0 0 2 4 5
51 52 53 54 53 50 46 41 38 37 36 37 38 37 32 28 29 30 30 29 26 21 17 14 13 11 8 5 2 1 2 2 0 0 0 0 0 0 0 1 2 3 4
48 49 50 51 51 48 43 40 39 38 36 36 37 36 34 29 29 33 33 31 27 23 20 19 18 14 11 7 3 1 2 1 0 0 0 0 0 0 1 2 2 2 3
Wind_Speed
18 19 18 17 16 15 15 15 14 14 14 14 13 13 13 13 14 14 14 14 13 13 13 13 13 13 13 13 14 14 14 15 16 17 17 16 14 13 12 14 15 13 15
22 20 19 17 16 16 15 15 15 14 14 13 13 13 13 13 13 13 13 13 13 13 13 13 13 13 13 13 13 13 13 13 14 16 16 15 14 12 11 12 15 11 15
22 20 18 17 16 16 15 15 15 14 14 13 13 13 12 12 12 12 13 13 13 13 14 14 13 13 13 13 12 11 11 11 12 13 13 10 11 14 15 16 16 15 14
22 19 17 18 17 16 15 15 15 14 14 13 13 13 12 12 12 12 12 13 13 13 13 14 13 13 13 12 11 10 9 9 9 8 6 8 9 13 15 15 15 14 14
20 18 18 19 18 17 16 15 15 14 14 13 13 13 12 12 12 13 13 13 13 13 13 13 13 13 12 11 9 8 7 6 6 7 9 9 8 11 14 14 14 14 14
20 19 19 19 18 17 16 15 15 14 14 13 13 12 12 12 12 13 13 13 13 13 13 13 12 12 11 9 7 5 4 2 2 8 9 9 8 11 13 13 13 13 13
20 19 19 19 18 17 16 15 15 14 14 13 13 12 12 12 12 12 12 13 13 13 12 12 11 11 9 7 5 3 1 1 1 9 9 9 9 11 12 12 12 13 12
21 20 18 19 18 17 16 15 15 14 14 13 13 13 12 12 12 12 12 13 12 12 12 11 10 9 8 6 3 0 1 3 6 11 11 9 10 11 12 12 12 12 12
21 20 17 16 16 17 16 15 15 14 14 14 13 13 13 12 12 12 12 12 12 11 11 10 9 8 7 5 3 2 3 5 2 8 11 8 11 12 12 11 11 11 11
19 19 17 17 15 14 13 15 15 14 14 14 14 13 13 13 13 13 12 11 11 10 10 9 8 8 7 5 3 3 4 5 3 10 8 9 12 12 12 11 11 10 10
18 17 17 17 15 14 14 14 14 14 13 13 12 13 12 9 10 9 12 11 10 9 9 8 7 7 6 6 5 4 4 1 6 8 7 12 12 12 11 11 10 10 10
17 17 15 16 15 14 12 11 9 10 10 9 8 9 7 5 6 9 12 11 10 9 8 7 7 6 6 4 5 5 2 2 6 7 8 13 12 12 11 10 10 9 9
15 15 16 14 12 12 9 9 7 6 7 7 9 8 5 5 6 7 6 6 6 7 6 6 6 5 5 3 3 3 1 2 5 6 8 12 11 11 11 10 9 9 9
12 13 14 14 11 9 10 8 6 6 6 6 7 7 5 3 4 6 4 5 5 4 3 4 3 3 3 2 1 2 2 4 6 6 7 12 11 11 10 10 9 8 8
10 11 12 12 10 8 7 6 7 7 7 7 6 5 5 4 4 4 3 3 4 4 3 2 2 2 2 1 1 3 3 4 7 7 6 11 11 10 10 10 9 9 9
11 10 11 11 10 8 6 3 4 5 6 6 6 6 5 4 4 4 3 1 2 3 3 2 3 3 2 1 1 3 3 4 5 6 7 8 10 9 9 9 9 9 9
12 10 11 11 10 9 8 6 5 5 6 6 5 6 5 5 5 4 3 2 1 3 3 2 2 2 3 2 2 2 2 3 4 5 6 6 6 8 9 8 8 8 8
12 11 11 12 12 9 7 5 4 4 5 5 6 6 5 5 6 4 4 3 3 2 3 2 2 2 2 2 2 2 2 3 3 4 4 5 5 6 8 10 9 9 9
11 11 11 10 12 10 8 6 4 3 4 4 5 6 6 6 6 4 2 3 3 2 2 3 2 1 2 2 2 2 2 3 3 4 4 5 5 6 6 9 10 10 10
11 11 11 10 10 9 7 5 3 4 3 3 4 5 7 5 6 4 3 4 3 2 2 2 3 2 1 1 2 2 2 3 3 3 4 4 5 6 7 7 6 7 10
10 11 11 11 10 8 7 6 5 5 4 3 4 7 7 6 6 4 3 4 2 2 3 3 3 2 1 1 1 1 2 4 4 3 3 3 4 4 5 7 5 5 5
11 11 11 11 11 9 7 6 5 6 5 5 4 5 6 6 6 6 4 4 3 2 3 3 2 1 2 2 1 1 1 1 2 5 4 3 4 4 5 7 6 5 5
12 12 12 11 11 10 9 6 6 5 4 4 5 5 5 6 6 4 5 4 4 4 4 4 3 3 2 2 2 1 1 1 2 2 4 4 3 3 3 4 6 6 6
12 11 10 11 10 9 9 8 10 8 7 6 5 5 6 6 6 5 5 5 4 3 5 5 5 3 2 2 1 1 1 1 1 1 2 3 4 4 3 3 4 6 5
12 11 10 9 9 9 10 10 9 8 6 5 6 7 7 6 6 6 6 5 5 3 5 4 3 3 2 2 1 1 2 1 2 2 2 3 3 4 4 4 3 4 5
10 11 11 11 10 10 10 10 10 9 8 7 7 7 6 5 5 7 7 6 5 4 4 4 3 4 2 1 1 1 1 2 2 2 2 3 3 3 4 3 3 4 4
Wind_Direction
128 132 135 135 135 133 131 128 124 120 117 114 110 105 101 99 97 96 96 96 97 98 98 96 94 91 89 88 87 88 90 91 94 96 95 94 93 95 100 103 100 95 99
127 132 134 135 135 134 132 129 126 124 122 120 116 112 108 105 103 101 101 100 99 98 98 97 96 94 93 93 94 96 98 101 103 104 101 93 87 87 90 92 92 101 102
127 132 135 135 136 135 133 131 129 127 125 124 121 117 113 109 107 104 102 102 101 100 100 99 99 97 97 98 100 103 106 110 115 118 110 98 89 86 89 94 98 102 102
129 136 136 136 136 135 134 133 133 131 129 127 125 121 118 115 111 108 105 103 102 102 102 101 100 100 99 101 105 110 114 118 124 127 106 95 93 92 94 98 100 100 101
131 132 133 139 137 136 135 135 134 134 132 130 127 125 122 118 114 111 109 106 105 103 103 103 101 101 102 103 108 116 121 129 136 120 94 89 89 98 99 101 102 101 101
131 132 137 140 139 138 137 136 136 136 134 132 130 128 124 120 118 116 113 110 107 105 104 104 103 104 105 106 111 118 122 131 160 114 111 105 102 104 104 105 105 104 103
135 133 139 141 140 140 139 138 137 137 137 135 132 128 126 123 121 118 116 113 110 109 108 107 106 107 106 106 110 117 113 327 159 107 105 102 105 107 107 107 106 105 104
135 135 138 142 141 141 141 141 140 140 139 137 135 133 129 126 123 120 118 115 113 112 113 112 111 112 111 113 122 144 336 306 104 110 106 106 114 113 111 111 108 107 107
135 135 143 145 144 144 144 144 144 143 142 140 138 135 133 131 128 124 121 119 118 117 118 117 116 119 124 135 167 259 300 317 94 119 116 114 120 118 116 114 112 111 112
138 142 148 148 147 149 148 148 148 147 144 143 142 141 140 138 136 133 129 125 124 124 125 125 126 131 139 154 191 252 301 317 100 106 108 120 125 124 122 121 118 117 118
143 146 154 150 154 155 152 149 151 150 149 149 150 153 153 154 147 150 128 133 134 134 136 139 144 149 158 176 205 244 287 302 99 100 110 129 133 129 128 128 126 123 122
148 152 156 153 157 160 154 149 158 160 158 170 158 167 180 161 144 131 134 141 146 148 153 162 169 178 196 188 195 223 245 151 110 109 122 136 135 134 134 135 134 132 131
154 156 155 152 157 161 142 158 167 161 164 178 162 173 175 148 135 132 147 150 162 171 181 168 189 203 204 201 180 186 156 111 98 106 131 139 139 141 142 143 142 142 143
160 157 153 150 158 154 150 163 164 159 168 169 163 179 163 163 153 151 160 167 170 184 187 181 200 180 169 173 148 114 110 100 111 119 144 147 146 148 150 152 153 154 155
163 158 151 152 152 148 147 166 169 162 166 159 162 180 160 159 149 140 142 161 174 161 173 193 147 118 116 147 134 104 93 100 122 137 142 154 152 155 158 160 165 167 167
167 160 149 152 149 147 149 174 158 158 154 152 160 164 169 149 134 131 139 172 158 149 152 152 142 137 151 123 91 99 109 116 116 134 143 155 159 161 166 168 172 175 177
168 159 153 155 155 157 159 179 173 163 159 154 152 153 167 146 139 146 149 182 167 128 126 135 146 137 168 160 154 139 104 99 121 132 145 156 162 170 173 174 178 182 186
168 161 162 168 162 164 165 182 187 176 154 150 150 153 165 147 151 159 163 177 159 148 154 148 178 159 144 142 153 156 135 131 144 153 154 159 161 169 181 186 186 187 192
166 164 166 168 164 166 168 182 194 163 152 156 153 155 162 161 159 175 157 140 163 160 163 175 140 130 143 153 174 164 166 163 169 176 162 170 170 167 170 184 190 192 197
166 166 168 166 164 166 168 178 187 159 169 164 158 152 155 164 168 172 158 156 185 167 147 110 111 103 135 196 224 159 183 175 179 171 184 180 175 178 173 171 180 198 202
170 169 169 169 167 168 172 178 177 175 180 173 167 153 161 170 168 182 163 157 193 161 145 139 140 155 210 185 179 190 191 187 180 174 195 179 173 176 167 161 178 180 187
174 173 172 173 173 177 178 177 175 172 182 177 167 154 164 166 168 184 157 173 175 151 148 156 147 171 217 185 197 192 197 197 200 188 178 191 180 173 173 176 175 175 179
176 178 181 179 178 182 177 176 171 167 177 171 164 165 173 171 178 196 170 189 170 176 170 173 179 199 222 210 205 187 191 179 194 179 195 181 168 173 183 175 178 180 185
177 177 180 179 179 179 174 179 178 178 182 179 172 171 176 182 182 189 188 194 183 187 160 188 186 191 203 239 218 192 205 94 150 166 219 181 180 182 196 201 187 177 184
176 176 177 177 178 179 181 186 187 185 180 174 171 167 176 184 190 190 192 192 186 193 172 192 151 188 201 233 231 203 210 196 221 200 197 187 194 187 188 197 193 184 186
172 172 174 176 180 182 186 190 193 190 181 178 175 168 176 182 192 195 192 190 187 192 170 171 164 195 212 253 282 258 198 208 225 222 199 198 197 193 183 184 190 193 194